Time,TemperatureF,DewpointF,PressureIn,WindDirection,WindDirectionDegrees,WindSpeedMPH,WindSpeedGustMPH,Humidity,HourlyPrecipIn,Conditions,Clouds,dailyrainin,SoftwareType,DateUTC
2013-06-11 00:01:00,57.4,56.3,30.02,SSE,164,0.7,3.5,96,0.13,RA,,0.00,WeatherDisplay:10.37,2013-06-11 04:01:00,
2013-06-11 00:03:00,57.4,56.3,30.02,SE,140,0.0,1.2,96,0.13,RA,,0.00,WeatherDisplay:10.37,2013-06-11 04:03:00,
2013-06-11 00:08:00,57.4,56.6,30.01,WSW,256,0.6,3.5,97,0.12,RA,,0.00,WeatherDisplay:10.37,2013-06-11 04:08:00,
2013-06-11 00:13:00,57.3,56.2,30.01,East,85,0.1,2.3,96,0.13,RA,,0.01,WeatherDisplay:10.37,2013-06-11 04:13:00,
2013-06-11 00:18:00,57.3,56.2,30.01,SSE,153,0.1,1.2,96,0.13,RA,,0.01,WeatherDisplay:10.37,2013-06-11 04:18:00,
2013-06-11 00:23:00,57.3,56.2,30.00,SE,135,1.0,2.3,96,0.12,OVC,,0.01,WeatherDisplay:10.37,2013-06-11 04:23:00,
2013-06-11 00:28:00,57.2,56.1,30.00,SSE,157,2.4,2.4,96,0.11,OVC,,0.01,WeatherDisplay:10.37,2013-06-11 04:28:00,
2013-06-11 00:33:00,57.2,56.1,29.99,SE,133,0.3,3.5,96,0.10,-RA,,0.01,WeatherDisplay:10.37,2013-06-11 04:33:00,
2013-06-11 00:38:00,57.1,56.0,29.99,ESE,119,1.3,4.6,96,0.09,-RA,,0.01,WeatherDisplay:10.37,2013-06-11 04:38:00,
2013-06-11 00:43:00,57.1,56.0,29.99,SSE,165,0.8,3.5,96,0.05,-RA,,0.01,WeatherDisplay:10.37,2013-06-11 04:43:00,
2013-06-11 00:48:00,57.1,56.3,29.98,ESE,113,1.7,2.3,97,0.03,-RA,,0.01,WeatherDisplay:10.37,2013-06-11 04:48:00,
2013-06-11 00:53:00,57.1,56.3,29.98,ESE,123,1.2,4.6,97,0.02,-RA,,0.02,WeatherDisplay:10.37,2013-06-11 04:53:00,
2013-06-11 00:58:00,57.1,56.3,29.98,South,175,0.4,1.2,97,0.02,-RA,,0.02,WeatherDisplay:10.37,2013-06-11 04:58:00,
2013-06-11 01:03:00,57.2,56.4,29.98,East,88,0.7,2.3,97,0.02,-RA,,0.02,WeatherDisplay:10.37,2013-06-11 05:03:00,
2013-06-11 01:08:00,57.1,56.3,29.97,North,349,2.3,4.6,97,0.02,-RA,,0.02,WeatherDisplay:10.37,2013-06-11 05:08:00,
2013-06-11 01:13:00,57.0,55.9,29.97,ESE,106,2.1,3.5,96,0.02,-RA,,0.03,WeatherDisplay:10.37,2013-06-11 05:13:00,
2013-06-11 01:18:00,56.9,56.1,29.96,ESE,120,0.6,4.6,97,0.02,-RA,,0.03,WeatherDisplay:10.37,2013-06-11 05:18:00,
2013-06-11 01:23:00,57.0,56.2,29.96,SSE,147,0.5,2.3,97,0.02,-RA,,0.03,WeatherDisplay:10.37,2013-06-11 05:23:00,
2013-06-11 01:28:00,57.0,56.2,29.95,ENE,69,3.1,4.6,97,0.02,-RA,,0.03,WeatherDisplay:10.37,2013-06-11 05:28:00,
2013-06-11 01:33:00,57.0,56.2,29.95,East,88,1.2,5.8,97,0.02,-RA,,0.03,WeatherDisplay:10.37,2013-06-11 05:33:00,
2013-06-11 01:38:00,56.9,56.1,29.95,South,183,1.5,3.5,97,0.02,-RA,,0.03,WeatherDisplay:10.37,2013-06-11 05:38:00,
2013-06-11 01:43:00,56.9,56.1,29.95,SE,144,3.8,8.1,97,0.03,-RA,,0.04,WeatherDisplay:10.37,2013-06-11 05:43:00,
2013-06-11 01:48:00,56.9,56.1,29.95,SSW,200,3.3,6.0,97,0.03,-RA,,0.05,WeatherDisplay:10.37,2013-06-11 05:48:00,
2013-06-11 01:53:00,56.9,56.1,29.94,SSE,156,4.1,8.1,97,0.04,-RA,,0.07,WeatherDisplay:10.37,2013-06-11 05:53:00,
2013-06-11 01:58:00,56.8,55.7,29.94,WNW,298,1.7,3.5,96,0.07,-RA,,0.09,WeatherDisplay:10.37,2013-06-11 05:58:00,
2013-06-11 02:03:00,56.8,55.7,29.94,North,360,1.2,3.5,96,0.07,-RA,,0.09,WeatherDisplay:10.37,2013-06-11 06:03:00,
2013-06-11 02:08:00,56.7,55.6,29.93,SE,139,0.7,3.5,96,0.08,-RA,,0.10,WeatherDisplay:10.37,2013-06-11 06:08:00,
2013-06-11 02:13:00,56.6,55.5,29.92,SSE,163,3.5,6.9,96,0.07,-RA,,0.10,WeatherDisplay:10.37,2013-06-11 06:13:00,
2013-06-11 02:18:00,56.5,55.4,29.92,SE,133,6.0,9.2,96,0.07, +RA,,0.10,WeatherDisplay:10.37,2013-06-11 06:18:00,
2013-06-11 02:23:00,56.4,55.3,29.91,ESE,116,2.3,5.8,96,0.07, +RA,,0.10,WeatherDisplay:10.37,2013-06-11 06:23:00,
2013-06-11 02:28:00,56.3,55.2,29.91,South,169,0.2,2.3,96,0.08, +RA,,0.11,WeatherDisplay:10.37,2013-06-11 06:28:00,
2013-06-11 02:33:00,56.3,55.2,29.91,North,360,1.1,2.3,96,0.08, +RA,,0.11,WeatherDisplay:10.37,2013-06-11 06:33:00,
2013-06-11 02:38:00,56.3,55.5,29.91,East,86,2.0,6.0,97,0.08, +RA,,0.11,WeatherDisplay:10.37,2013-06-11 06:38:00,
2013-06-11 02:43:00,56.3,55.2,29.91,NE,49,2.1,4.0,96,0.07, +RA,,0.11,WeatherDisplay:10.37,2013-06-11 06:43:00,
2013-06-11 02:48:00,56.3,55.2,29.91,NNE,27,1.4,3.5,96,0.08, +RA,,0.12,WeatherDisplay:10.37,2013-06-11 06:48:00,
2013-06-11 02:53:00,56.2,55.1,29.90,East,94,3.0,6.9,96,0.06, +RA,,0.12,WeatherDisplay:10.37,2013-06-11 06:53:00,
2013-06-11 02:58:00,56.0,54.9,29.90,South,176,2.1,4.6,96,0.03, +RA,,0.12,WeatherDisplay:10.37,2013-06-11 06:58:00,
2013-06-11 03:03:00,56.1,55.0,29.90,ENE,77,1.3,3.5,96,0.03, +RA,,0.12,WeatherDisplay:10.37,2013-06-11 07:03:00,
2013-06-11 03:08:00,56.1,55.0,29.90,SSW,205,1.0,6.0,96,0.02, +RA,,0.12,WeatherDisplay:10.37,2013-06-11 07:08:00,
2013-06-11 03:13:00,56.0,54.9,29.90,East,91,1.6,3.5,96,0.03, +RA,,0.14,WeatherDisplay:10.37,2013-06-11 07:13:00,
2013-06-11 03:18:00,56.0,54.9,29.90,SSE,153,1.9,8.1,96,0.07,-RA,,0.18,WeatherDisplay:10.37,2013-06-11 07:18:00,
2013-06-11 03:23:00,55.9,54.8,29.89,SE,146,3.0,6.0,96,0.11,-RA,,0.21,WeatherDisplay:10.37,2013-06-11 07:23:00,
2013-06-11 03:28:00,55.8,54.7,29.89,SSE,163,0.2,3.5,96,0.10,-RA,,0.21,WeatherDisplay:10.37,2013-06-11 07:28:00,
2013-06-11 03:33:00,55.7,54.6,29.88,East,96,4.0,7.0,96,0.11,-RA,,0.23,WeatherDisplay:10.37,2013-06-11 07:33:00,
2013-06-11 03:38:00,55.7,54.6,29.88,SE,144,1.0,4.6,96,0.14,-RA,,0.25,WeatherDisplay:10.37,2013-06-11 07:38:00,
2013-06-11 03:43:00,55.7,54.6,29.88,NNE,17,0.6,3.5,96,0.15,-RA,,0.26,WeatherDisplay:10.37,2013-06-11 07:43:00,
2013-06-11 03:48:00,55.7,54.9,29.87,SE,142,2.5,4.6,97,0.15,-RA,,0.27,WeatherDisplay:10.37,2013-06-11 07:48:00,
2013-06-11 03:53:00,55.7,54.9,29.87,ESE,122,2.3,3.5,97,0.15,-RA,,0.27,WeatherDisplay:10.37,2013-06-11 07:53:00,
2013-06-11 03:58:00,55.6,54.8,29.87,ENE,74,3.5,3.5,97,0.15,-RA,,0.27,WeatherDisplay:10.37,2013-06-11 07:58:00,
2013-06-11 04:03:00,55.6,54.8,29.86,ESE,107,0.8,2.3,97,0.15,-RA,,0.27,WeatherDisplay:10.37,2013-06-11 08:03:00,
2013-06-11 04:08:00,55.6,54.8,29.86,ESE,119,0.9,3.5,97,0.15,-RA,,0.27,WeatherDisplay:10.37,2013-06-11 08:08:00,
2013-06-11 04:13:00,55.6,54.8,29.86,South,169,1.1,4.0,97,0.15,-RA,,0.28,WeatherDisplay:10.37,2013-06-11 08:13:00,
2013-06-11 04:18:00,55.7,54.9,29.85,ESE,120,2.1,3.5,97,0.11,RA,,0.28,WeatherDisplay:10.37,2013-06-11 08:18:00,
2013-06-11 04:23:00,55.6,54.8,29.85,SSE,159,1.5,3.5,97,0.08,RA,,0.29,WeatherDisplay:10.37,2013-06-11 08:23:00,
2013-06-11 04:28:00,55.6,54.8,29.84,South,174,2.7,6.9,97,0.10,RA,,0.31,WeatherDisplay:10.37,2013-06-11 08:28:00,
2013-06-11 04:33:00,55.7,54.9,29.84,SSE,157,2.8,4.6,97,0.10,RA,,0.32,WeatherDisplay:10.37,2013-06-11 08:33:00,
2013-06-11 04:38:00,55.6,54.8,29.84,SSE,158,0.6,3.0,97,0.08,RA,,0.33,WeatherDisplay:10.37,2013-06-11 08:38:00,
2013-06-11 04:43:00,55.7,54.9,29.84,ESE,110,1.8,2.3,97,0.08,RA,,0.34,WeatherDisplay:10.37,2013-06-11 08:43:00,
2013-06-11 04:48:00,55.7,54.9,29.84,East,90,1.3,7.0,97,0.07,RA,,0.34,WeatherDisplay:10.37,2013-06-11 08:48:00,
2013-06-11 04:53:00,55.7,54.9,29.83,ESE,117,0.1,1.2,97,0.08,RA,,0.35,WeatherDisplay:10.37,2013-06-11 08:53:00,
2013-06-11 04:58:00,55.7,54.9,29.83,NE,36,1.6,4.0,97,0.08,RA,,0.35,WeatherDisplay:10.37,2013-06-11 08:58:00,
2013-06-11 05:03:00,55.7,54.9,29.83,North,355,0.0,3.5,97,0.09,RA,,0.36,WeatherDisplay:10.37,2013-06-11 09:03:00,
2013-06-11 05:08:00,55.6,54.8,29.83,SE,134,2.6,4.6,97,0.09,RA,,0.36,WeatherDisplay:10.37,2013-06-11 09:08:00,
2013-06-11 05:13:00,55.6,54.8,29.82,North,9,1.4,3.5,97,0.09,RA,,0.37,WeatherDisplay:10.37,2013-06-11 09:13:00,
2013-06-11 05:18:00,55.5,54.7,29.82,West,262,0.6,1.2,97,0.09,-RA,,0.37,WeatherDisplay:10.37,2013-06-11 09:18:00,
2013-06-11 05:23:00,55.5,54.7,29.82,North,355,1.2,2.3,97,0.08,-RA,,0.37,WeatherDisplay:10.37,2013-06-11 09:23:00,
2013-06-11 05:28:00,55.5,54.7,29.82,NE,54,2.6,4.6,97,0.07,-RA,,0.38,WeatherDisplay:10.37,2013-06-11 09:28:00,
2013-06-11 05:33:00,55.4,54.6,29.82,SE,136,0.0,2.3,97,0.06,-RA,,0.38,WeatherDisplay:10.37,2013-06-11 09:33:00,
2013-06-11 05:38:00,55.5,54.7,29.82,SE,134,0.4,5.0,97,0.05,-RA,,0.38,WeatherDisplay:10.37,2013-06-11 09:38:00,
2013-06-11 05:43:00,55.5,54.7,29.82,SE,132,0.0,1.2,97,0.04,-RA,,0.38,WeatherDisplay:10.37,2013-06-11 09:43:00,
2013-06-11 05:48:00,55.5,54.7,29.82,East,84,0.7,3.5,97,0.04,-RA,,0.38,WeatherDisplay:10.37,2013-06-11 09:48:00,
2013-06-11 05:53:00,55.5,54.7,29.81,ENE,57,0.3,3.5,97,0.03,-RA,,0.38,WeatherDisplay:10.37,2013-06-11 09:53:00,
2013-06-11 05:58:00,55.5,54.7,29.81,ENE,69,1.3,5.8,97,0.03,-RA,,0.38,WeatherDisplay:10.37,2013-06-11 09:58:00,
2013-06-11 06:03:00,55.4,54.6,29.81,NE,42,2.1,4.6,97,0.02,-RA,,0.38,WeatherDisplay:10.37,2013-06-11 10:03:00,
2013-06-11 06:08:00,55.5,54.7,29.80,ESE,103,0.2,2.0,97,0.02,-RA,,0.38,WeatherDisplay:10.37,2013-06-11 10:08:00,
2013-06-11 06:13:00,55.5,54.7,29.80,NE,38,0.0,1.2,97,0.01,-RA,,0.38,WeatherDisplay:10.37,2013-06-11 10:13:00,
2013-06-11 06:18:00,55.5,54.7,29.79,ESE,103,1.4,8.1,97,0.01,-RA,,0.38,WeatherDisplay:10.37,2013-06-11 10:18:00,
2013-06-11 06:23:00,55.6,54.8,29.79,WNW,296,0.7,3.5,97,0.01,-RA,,0.38,WeatherDisplay:10.37,2013-06-11 10:23:00,
2013-06-11 06:28:00,55.5,54.7,29.79,East,95,1.1,5.0,97,0.01,-RA,,0.39,WeatherDisplay:10.37,2013-06-11 10:28:00,
2013-06-11 06:33:00,55.5,54.7,29.80,ESE,108,0.0,0.0,97,0.02,-RA,,0.40,WeatherDisplay:10.37,2013-06-11 10:33:00,
2013-06-11 06:38:00,55.5,54.7,29.79,East,97,0.5,3.5,97,0.02,-RA,,0.40,WeatherDisplay:10.37,2013-06-11 10:38:00,
2013-06-11 06:43:00,55.5,54.7,29.79,ENE,60,0.2,1.2,97,0.02,-RA,,0.40,WeatherDisplay:10.37,2013-06-11 10:43:00,
2013-06-11 06:48:00,55.6,54.8,29.78,East,101,0.7,1.0,97,0.02,-RA,,0.40,WeatherDisplay:10.37,2013-06-11 10:48:00,
2013-06-11 06:53:00,55.5,54.7,29.78,North,360,0.0,0.0,97,0.02,-RA,,0.40,WeatherDisplay:10.37,2013-06-11 10:53:00,
2013-06-11 06:58:00,55.5,54.7,29.77,East,88,1.1,3.0,97,0.02,-RA,,0.40,WeatherDisplay:10.37,2013-06-11 10:58:00,
2013-06-11 07:03:00,55.5,54.7,29.77,SE,134,1.8,3.5,97,0.02,OVC,,0.40,WeatherDisplay:10.37,2013-06-11 11:03:00,
2013-06-11 07:08:00,55.5,54.7,29.77,ESE,115,2.1,3.5,97,0.03,RA,,0.41,WeatherDisplay:10.37,2013-06-11 11:08:00,
2013-06-11 07:13:00,55.5,54.7,29.77,SE,144,1.0,2.3,97,0.03,RA,,0.41,WeatherDisplay:10.37,2013-06-11 11:13:00,
2013-06-11 07:18:00,55.4,54.6,29.77,SE,143,0.0,0.0,97,0.04,RA,,0.42,WeatherDisplay:10.37,2013-06-11 11:18:00,
2013-06-11 07:23:00,55.4,54.6,29.76,ENE,71,2.5,6.9,97,0.04,RA,,0.42,WeatherDisplay:10.37,2013-06-11 11:23:00,
2013-06-11 07:28:00,55.3,54.5,29.76,WNW,286,0.2,2.3,97,0.03,OVC,,0.42,WeatherDisplay:10.37,2013-06-11 11:28:00,
2013-06-11 07:33:00,55.3,54.5,29.76,WNW,286,0.0,0.0,97,0.02,OVC,,0.42,WeatherDisplay:10.37,2013-06-11 11:33:00,
2013-06-11 07:38:00,55.4,54.6,29.76,South,189,0.5,0.0,97,0.03,RA,,0.43,WeatherDisplay:10.37,2013-06-11 11:38:00,
2013-06-11 07:43:00,55.4,54.6,29.75,ENE,63,0.7,2.3,97,0.03,RA,,0.43,WeatherDisplay:10.37,2013-06-11 11:43:00,
2013-06-11 07:48:00,55.4,54.6,29.75,ENE,63,0.0,0.0,97,0.03,OVC,,0.43,WeatherDisplay:10.37,2013-06-11 11:48:00,
2013-06-11 07:53:00,55.4,54.6,29.75,East,90,0.0,1.2,97,0.03,OVC,,0.43,WeatherDisplay:10.37,2013-06-11 11:53:00,
2013-06-11 07:58:00,55.4,54.6,29.75,East,94,0.2,3.0,97,0.03,OVC,,0.43,WeatherDisplay:10.37,2013-06-11 11:58:00,
2013-06-11 08:03:00,55.3,54.5,29.75,NE,46,1.0,2.3,97,0.03,OVC,,0.43,WeatherDisplay:10.37,2013-06-11 12:03:00,
2013-06-11 08:08:00,55.3,54.5,29.75,ENE,70,2.2,3.5,97,0.02,OVC,,0.43,WeatherDisplay:10.37,2013-06-11 12:08:00,
2013-06-11 08:13:00,55.4,54.6,29.74,South,186,0.0,0.0,97,0.02,OVC,,0.43,WeatherDisplay:10.37,2013-06-11 12:13:00,
2013-06-11 08:18:00,55.5,54.7,29.74,SSW,193,0.2,1.2,97,0.01,OVC,,0.43,WeatherDisplay:10.37,2013-06-11 12:18:00,
2013-06-11 08:23:00,55.5,54.7,29.74,South,189,0.0,0.0,97,0.01,OVC,,0.43,WeatherDisplay:10.37,2013-06-11 12:23:00,
2013-06-11 08:28:00,55.4,54.6,29.74,NNW,335,0.5,3.5,97,0.01,OVC,,0.43,WeatherDisplay:10.37,2013-06-11 12:28:00,
2013-06-11 08:33:00,55.5,54.7,29.74,North,5,0.3,2.3,97,0.01,OVC,,0.43,WeatherDisplay:10.37,2013-06-11 12:33:00,
2013-06-11 08:38:00,55.6,54.8,29.74,SE,126,0.0,3.5,97,0.00,OVC,,0.43,WeatherDisplay:10.37,2013-06-11 12:38:00,
2013-06-11 08:43:00,55.7,54.9,29.74,NE,52,0.4,2.0,97,0.00,OVC,,0.43,WeatherDisplay:10.37,2013-06-11 12:43:00,
2013-06-11 08:48:00,55.7,54.9,29.74,South,189,0.0,0.0,97,0.00,OVC,,0.43,WeatherDisplay:10.37,2013-06-11 12:48:00,
2013-06-11 08:53:00,55.9,55.3,29.73,South,189,0.0,0.0,98,0.00,OVC,,0.43,WeatherDisplay:10.37,2013-06-11 12:53:00,
2013-06-11 08:58:00,56.0,55.4,29.73,SSW,194,0.0,0.0,98,0.00,OVC,,0.43,WeatherDisplay:10.37,2013-06-11 12:58:00,
2013-06-11 09:03:00,56.0,55.2,29.73,NNE,13,0.9,3.5,97,0.00,OVC,,0.43,WeatherDisplay:10.37,2013-06-11 13:03:00,
2013-06-11 09:08:00,55.9,55.1,29.73,NNW,335,3.0,4.6,97,0.00,OVC,,0.43,WeatherDisplay:10.37,2013-06-11 13:08:00,
2013-06-11 09:13:00,55.9,55.1,29.72,NNW,347,0.4,2.0,97,0.00,OVC,,0.43,WeatherDisplay:10.37,2013-06-11 13:13:00,
2013-06-11 09:18:00,56.1,55.5,29.72,SW,217,0.1,1.2,98,0.00,OVC,,0.43,WeatherDisplay:10.37,2013-06-11 13:18:00,
2013-06-11 09:23:00,56.1,55.3,29.72,ESE,102,0.4,3.5,97,0.00,OVC,,0.43,WeatherDisplay:10.37,2013-06-11 13:23:00,
2013-06-11 09:28:00,56.0,55.2,29.72,NNW,331,0.0,0.0,97,0.00,OVC,,0.43,WeatherDisplay:10.37,2013-06-11 13:28:00,
2013-06-11 09:33:00,56.0,55.2,29.72,NW,323,0.1,1.2,97,0.00,OVC,,0.43,WeatherDisplay:10.37,2013-06-11 13:33:00,
2013-06-11 09:38:00,56.0,55.2,29.72,NNW,342,0.8,3.5,97,0.00,OVC,,0.43,WeatherDisplay:10.37,2013-06-11 13:38:00,
2013-06-11 09:43:00,56.0,55.2,29.72,NNE,30,0.3,2.3,97,0.00,OVC,,0.43,WeatherDisplay:10.37,2013-06-11 13:43:00,
2013-06-11 09:48:00,56.1,55.5,29.72,SW,236,0.9,3.5,98,0.00,OVC,,0.43,WeatherDisplay:10.37,2013-06-11 13:48:00,
2013-06-11 09:53:00,56.0,55.2,29.72,NNE,15,0.9,3.5,97,0.00,OVC,,0.43,WeatherDisplay:10.37,2013-06-11 13:53:00,
2013-06-11 09:58:00,56.2,55.4,29.72,North,355,0.0,0.0,97,0.00,OVC,,0.43,WeatherDisplay:10.37,2013-06-11 13:58:00,
2013-06-11 10:03:00,56.2,55.4,29.71,NW,312,1.1,3.5,97,0.00,OVC,,0.43,WeatherDisplay:10.37,2013-06-11 14:03:00,
2013-06-11 10:08:00,56.2,55.4,29.71,ENE,63,0.0,1.2,97,0.00,OVC,,0.43,WeatherDisplay:10.37,2013-06-11 14:08:00,
2013-06-11 10:13:00,56.3,55.5,29.71,East,99,1.5,3.5,97,0.00,OVC,,0.43,WeatherDisplay:10.37,2013-06-11 14:13:00,
2013-06-11 10:18:00,56.3,55.7,29.71,NNE,26,0.6,1.2,98,0.00,OVC,,0.43,WeatherDisplay:10.37,2013-06-11 14:18:00,
2013-06-11 10:23:00,56.4,55.6,29.71,NW,325,1.8,3.5,97,0.00,OVC,,0.43,WeatherDisplay:10.37,2013-06-11 14:23:00,
2013-06-11 10:28:00,56.3,55.5,29.71,NNW,339,2.2,5.8,97,0.00,OVC,,0.43,WeatherDisplay:10.37,2013-06-11 14:28:00,
2013-06-11 10:33:00,56.4,55.6,29.71,East,99,0.1,1.2,97,0.00,OVC,,0.43,WeatherDisplay:10.37,2013-06-11 14:33:00,
2013-06-11 10:38:00,56.7,56.1,29.71,South,189,0.8,0.0,98,0.00,OVC,,0.43,WeatherDisplay:10.37,2013-06-11 14:38:00,
2013-06-11 10:43:00,56.9,56.3,29.71,ESE,103,0.0,0.0,98,0.00,OVC,,0.43,WeatherDisplay:10.37,2013-06-11 14:43:00,
2013-06-11 10:48:00,56.9,56.1,29.71,NW,316,1.9,3.5,97,0.00,OVC,,0.43,WeatherDisplay:10.37,2013-06-11 14:48:00,
2013-06-11 10:53:00,56.9,56.1,29.71,ESE,106,0.0,3.5,97,0.00,OVC,,0.43,WeatherDisplay:10.37,2013-06-11 14:53:00,
2013-06-11 10:58:00,57.0,56.2,29.71,SSE,149,0.4,2.3,97,0.00,OVC,,0.43,WeatherDisplay:10.37,2013-06-11 14:58:00,
2013-06-11 11:03:00,57.2,56.4,29.71,NE,46,0.2,1.2,97,0.00,OVC,,0.43,WeatherDisplay:10.37,2013-06-11 15:03:00,
2013-06-11 11:08:00,57.2,56.4,29.71,WSW,242,0.5,1.2,97,0.00,OVC,,0.43,WeatherDisplay:10.37,2013-06-11 15:08:00,
2013-06-11 11:13:00,57.4,56.6,29.70,NNW,337,1.1,3.0,97,0.00,OVC,,0.43,WeatherDisplay:10.37,2013-06-11 15:13:00,
2013-06-11 11:18:00,57.3,56.5,29.70,SSW,202,0.5,2.3,97,0.00,OVC,,0.43,WeatherDisplay:10.37,2013-06-11 15:18:00,
2013-06-11 11:23:00,57.6,56.8,29.70,SSW,201,0.0,1.2,97,0.00,OVC,,0.43,WeatherDisplay:10.37,2013-06-11 15:23:00,
2013-06-11 11:28:00,57.7,56.9,29.70,North,5,0.8,1.2,97,0.00,OVC,,0.43,WeatherDisplay:10.37,2013-06-11 15:28:00,
2013-06-11 11:33:00,57.6,56.8,29.71,West,271,1.3,3.5,97,0.00,OVC,,0.43,WeatherDisplay:10.37,2013-06-11 15:33:00,
2013-06-11 11:38:00,57.4,56.3,29.71,NW,321,0.9,2.3,96,0.00,OVC,,0.43,WeatherDisplay:10.37,2013-06-11 15:38:00,
2013-06-11 11:43:00,57.4,56.3,29.70,NNW,332,1.2,3.5,96,0.00,OVC,,0.43,WeatherDisplay:10.37,2013-06-11 15:43:00,
2013-06-11 11:48:00,57.6,56.8,29.70,NNW,347,0.2,1.2,97,0.00,OVC,,0.43,WeatherDisplay:10.37,2013-06-11 15:48:00,
2013-06-11 11:53:00,57.9,56.8,29.70,WNW,301,0.3,1.2,96,0.00,OVC,,0.43,WeatherDisplay:10.37,2013-06-11 15:53:00,
2013-06-11 11:58:00,58.1,57.3,29.70,NNW,331,0.7,2.0,97,0.00,OVC,,0.43,WeatherDisplay:10.37,2013-06-11 15:58:00,
2013-06-11 12:03:00,58.1,56.7,29.70,WNW,290,0.1,1.2,95,0.00,OVC,,0.43,WeatherDisplay:10.37,2013-06-11 16:03:00,
2013-06-11 12:08:00,58.1,56.7,29.71,North,349,0.3,3.5,95,0.00,OVC,,0.43,WeatherDisplay:10.37,2013-06-11 16:08:00,
2013-06-11 12:13:00,58.1,56.7,29.71,NNW,345,0.3,2.3,95,0.00,OVC,,0.43,WeatherDisplay:10.37,2013-06-11 16:13:00,
2013-06-11 12:18:00,58.2,56.8,29.70,South,191,0.1,1.2,95,0.00,OVC,,0.43,WeatherDisplay:10.37,2013-06-11 16:18:00,
2013-06-11 12:23:00,58.4,57.3,29.70,SSW,192,0.2,1.2,96,0.00,OVC,,0.43,WeatherDisplay:10.37,2013-06-11 16:23:00,
2013-06-11 12:28:00,58.5,57.1,29.70,SW,229,0.0,0.0,95,0.00,OVC,,0.43,WeatherDisplay:10.37,2013-06-11 16:28:00,
2013-06-11 12:33:00,58.8,57.4,29.70,South,191,1.0,2.0,95,0.00,OVC,,0.43,WeatherDisplay:10.37,2013-06-11 16:33:00,
2013-06-11 12:38:00,58.7,57.0,29.70,WSW,244,2.5,3.5,94,0.00,OVC,,0.43,WeatherDisplay:10.37,2013-06-11 16:38:00,
2013-06-11 12:43:00,58.6,56.9,29.70,NW,313,1.7,2.3,94,0.00,OVC,,0.43,WeatherDisplay:10.37,2013-06-11 16:43:00,
2013-06-11 12:48:00,58.5,56.8,29.70,NW,313,0.5,3.5,94,0.00,OVC,,0.43,WeatherDisplay:10.37,2013-06-11 16:48:00,
2013-06-11 12:53:00,58.6,56.9,29.70,West,261,0.8,3.5,94,0.00,OVC,,0.43,WeatherDisplay:10.37,2013-06-11 16:53:00,
2013-06-11 12:58:00,58.7,57.0,29.70,NE,34,1.6,3.5,94,0.00,OVC,,0.43,WeatherDisplay:10.37,2013-06-11 16:58:00,
2013-06-11 13:03:00,58.8,57.1,29.70,ESE,119,0.6,2.3,94,0.00,OVC,,0.43,WeatherDisplay:10.37,2013-06-11 17:03:00,
2013-06-11 13:08:00,59.1,57.4,29.70,NE,41,0.1,1.2,94,0.00,OVC,,0.43,WeatherDisplay:10.37,2013-06-11 17:08:00,
2013-06-11 13:13:00,59.1,57.1,29.70,NW,307,0.5,2.3,93,0.00,OVC,,0.43,WeatherDisplay:10.37,2013-06-11 17:13:00,
2013-06-11 13:18:00,59.0,57.0,29.70,WNW,288,0.2,1.2,93,0.00,OVC,,0.43,WeatherDisplay:10.37,2013-06-11 17:18:00,
2013-06-11 13:23:00,59.2,57.5,29.70,WSW,248,0.3,1.0,94,0.00,OVC,,0.43,WeatherDisplay:10.37,2013-06-11 17:23:00,
2013-06-11 13:28:00,59.3,57.3,29.69,SE,128,0.1,2.3,93,0.00,OVC,,0.43,WeatherDisplay:10.37,2013-06-11 17:28:00,
2013-06-11 13:33:00,59.2,57.2,29.69,WNW,298,0.4,2.3,93,0.00,OVC,,0.43,WeatherDisplay:10.37,2013-06-11 17:33:00,
2013-06-11 13:38:00,59.3,57.3,29.69,NNW,342,0.8,2.3,93,0.00,OVC,,0.43,WeatherDisplay:10.37,2013-06-11 17:38:00,
2013-06-11 13:43:00,59.3,57.3,29.69,West,271,1.0,2.3,93,0.00,OVC,,0.43,WeatherDisplay:10.37,2013-06-11 17:43:00,
2013-06-11 13:48:00,59.2,56.9,29.69,NNW,340,0.6,2.3,92,0.00,OVC,,0.43,WeatherDisplay:10.37,2013-06-11 17:48:00,
2013-06-11 13:53:00,59.4,57.1,29.68,WNW,290,1.6,3.5,92,0.00,OVC,,0.43,WeatherDisplay:10.37,2013-06-11 17:53:00,
2013-06-11 13:58:00,59.6,57.3,29.68,NW,323,0.0,0.0,92,0.00,OVC,,0.43,WeatherDisplay:10.37,2013-06-11 17:58:00,
2013-06-11 14:03:00,60.0,57.4,29.68,NNW,327,0.5,1.2,91,0.00,OVC,,0.43,WeatherDisplay:10.37,2013-06-11 18:03:00,
2013-06-11 14:08:00,60.3,57.7,29.68,NE,54,0.1,1.2,91,0.00,OVC,,0.43,WeatherDisplay:10.37,2013-06-11 18:08:00,
2013-06-11 14:13:00,60.2,57.3,29.68,WNW,298,2.0,3.5,90,0.00,OVC,,0.43,WeatherDisplay:10.37,2013-06-11 18:13:00,
2013-06-11 14:18:00,59.9,57.0,29.67,NNW,331,2.5,2.5,90,0.00,OVC,,0.43,WeatherDisplay:10.37,2013-06-11 18:18:00,
2013-06-11 14:23:00,59.8,57.2,29.67,WSW,238,1.2,2.3,91,0.00,OVC,,0.43,WeatherDisplay:10.37,2013-06-11 18:23:00,
2013-06-11 14:28:00,59.8,56.9,29.67,NW,325,1.0,1.2,90,0.00,OVC,,0.43,WeatherDisplay:10.37,2013-06-11 18:28:00,
2013-06-11 14:33:00,59.9,57.3,29.67,SE,124,0.1,1.2,91,0.00,OVC,,0.43,WeatherDisplay:10.37,2013-06-11 18:33:00,
2013-06-11 14:38:00,60.3,57.7,29.67,NNE,30,0.0,0.0,91,0.00,OVC,,0.43,WeatherDisplay:10.37,2013-06-11 18:38:00,
2013-06-11 14:43:00,60.4,57.1,29.67,WSW,252,2.5,3.5,89,0.00,OVC,,0.43,WeatherDisplay:10.37,2013-06-11 18:43:00,
2013-06-11 14:48:00,60.5,57.2,29.67,West,278,1.2,3.5,89,0.00,OVC,,0.43,WeatherDisplay:10.37,2013-06-11 18:48:00,
2013-06-11 14:53:00,60.7,57.7,29.67,West,262,0.0,1.2,90,0.00,OVC,,0.43,WeatherDisplay:10.37,2013-06-11 18:53:00,
2013-06-11 14:58:00,61.0,57.7,29.67,SSE,155,0.3,2.3,89,0.00,OVC,,0.43,WeatherDisplay:10.37,2013-06-11 18:58:00,
2013-06-11 15:03:00,61.1,57.8,29.67,SE,134,0.8,1.2,89,0.00,OVC,,0.43,WeatherDisplay:10.37,2013-06-11 19:03:00,
2013-06-11 15:08:00,61.0,57.4,29.67,ESE,117,0.3,1.2,88,0.00,OVC,,0.43,WeatherDisplay:10.37,2013-06-11 19:08:00,
2013-06-11 15:13:00,60.9,57.6,29.67,ESE,117,0.0,0.0,89,0.00,OVC,,0.43,WeatherDisplay:10.37,2013-06-11 19:13:00,
2013-06-11 15:18:00,60.9,57.6,29.66,ESE,117,0.0,0.0,89,0.00,OVC,,0.43,WeatherDisplay:10.37,2013-06-11 19:18:00,
2013-06-11 15:24:00,60.9,57.6,29.67,ESE,119,0.0,1.2,89,0.00,OVC,,0.43,WeatherDisplay:10.37,2013-06-11 19:24:00,
2013-06-11 15:29:00,60.9,57.9,29.66,ESE,119,0.0,0.0,90,0.00,OVC,,0.43,WeatherDisplay:10.37,2013-06-11 19:29:00,
2013-06-11 15:34:00,60.9,57.6,29.66,NNW,342,0.0,2.3,89,0.00,OVC,,0.43,WeatherDisplay:10.37,2013-06-11 19:34:00,
2013-06-11 15:39:00,60.9,57.9,29.65,NW,309,0.4,1.2,90,0.00,OVC,,0.43,WeatherDisplay:10.37,2013-06-11 19:39:00,
2013-06-11 15:44:00,60.8,57.2,29.65,WNW,296,1.5,3.5,88,0.00,OVC,,0.43,WeatherDisplay:10.37,2013-06-11 19:44:00,
2013-06-11 15:49:00,60.9,57.6,29.65,NW,309,0.0,0.0,89,0.00,OVC,,0.43,WeatherDisplay:10.37,2013-06-11 19:49:00,
2013-06-11 15:54:00,61.1,57.5,29.65,NW,304,1.1,2.3,88,0.00,OVC,,0.43,WeatherDisplay:10.37,2013-06-11 19:54:00,
2013-06-11 15:59:00,61.2,57.6,29.64,NW,304,0.7,2.3,88,0.00,OVC,,0.43,WeatherDisplay:10.37,2013-06-11 19:59:00,
2013-06-11 16:04:00,61.4,57.8,29.64,East,87,0.6,1.2,88,0.00,OVC,,0.43,WeatherDisplay:10.37,2013-06-11 20:04:00,
2013-06-11 16:09:00,61.7,58.1,29.65,East,84,0.0,1.2,88,0.00,OVC,,0.43,WeatherDisplay:10.37,2013-06-11 20:09:00,
2013-06-11 16:14:00,61.9,58.0,29.64,East,100,0.0,1.0,87,0.00,OVC,,0.43,WeatherDisplay:10.37,2013-06-11 20:14:00,
2013-06-11 16:19:00,61.8,57.9,29.64,NNE,22,0.3,1.2,87,0.00,OVC,,0.43,WeatherDisplay:10.37,2013-06-11 20:19:00,
2013-06-11 16:24:00,61.8,58.2,29.64,East,88,0.2,3.5,88,0.00,OVC,,0.43,WeatherDisplay:10.37,2013-06-11 20:24:00,
2013-06-11 16:29:00,61.8,58.2,29.63,NNW,327,0.0,0.0,88,0.00,OVC,,0.43,WeatherDisplay:10.37,2013-06-11 20:29:00,
2013-06-11 16:34:00,61.7,57.8,29.64,SSE,157,0.7,2.3,87,0.00,OVC,,0.43,WeatherDisplay:10.37,2013-06-11 20:34:00,
2013-06-11 16:39:00,61.8,57.9,29.64,SSE,148,0.0,1.2,87,0.00,OVC,,0.43,WeatherDisplay:10.37,2013-06-11 20:39:00,
2013-06-11 16:44:00,61.9,58.0,29.63,East,86,1.0,2.3,87,0.00,OVC,,0.43,WeatherDisplay:10.37,2013-06-11 20:44:00,
2013-06-11 16:49:00,61.8,57.9,29.63,ENE,57,1.2,2.3,87,0.00,OVC,,0.43,WeatherDisplay:10.37,2013-06-11 20:49:00,
2013-06-11 16:54:00,61.5,57.3,29.63,ESE,114,0.0,0.0,86,0.00,OVC,,0.43,WeatherDisplay:10.37,2013-06-11 20:54:00,
2013-06-11 16:59:00,61.4,57.8,29.62,ESE,114,0.0,0.0,88,0.00,OVC,,0.43,WeatherDisplay:10.37,2013-06-11 20:59:00,
2013-06-11 17:04:00,61.2,57.3,29.62,SSE,148,1.2,3.5,87,0.00,OVC,,0.43,WeatherDisplay:10.37,2013-06-11 21:04:00,
2013-06-11 17:09:00,61.2,57.6,29.62,SE,142,0.0,0.0,88,0.00,OVC,,0.43,WeatherDisplay:10.37,2013-06-11 21:09:00,
2013-06-11 17:14:00,61.2,57.6,29.62,SE,142,0.0,0.0,88,0.00,OVC,,0.43,WeatherDisplay:10.37,2013-06-11 21:14:00,
2013-06-11 17:19:00,61.3,57.7,29.62,SE,134,1.1,1.1,88,0.00,OVC,,0.43,WeatherDisplay:10.37,2013-06-11 21:19:00,
2013-06-11 17:24:00,61.2,57.6,29.61,ENE,71,1.3,2.3,88,0.00,OVC,,0.43,WeatherDisplay:10.37,2013-06-11 21:24:00,
2013-06-11 17:29:00,61.1,57.5,29.61,ENE,69,0.1,1.2,88,0.00,OVC,,0.43,WeatherDisplay:10.37,2013-06-11 21:29:00,
2013-06-11 17:34:00,60.9,57.6,29.60,NE,43,0.1,0.0,89,0.00,OVC,,0.43,WeatherDisplay:10.37,2013-06-11 21:34:00,
2013-06-11 17:39:00,60.9,57.6,29.60,ESE,115,0.0,0.0,89,0.00,OVC,,0.43,WeatherDisplay:10.37,2013-06-11 21:39:00,
2013-06-11 17:44:00,60.9,57.3,29.60,East,80,1.1,3.5,88,0.00,OVC,,0.43,WeatherDisplay:10.37,2013-06-11 21:44:00,
2013-06-11 17:49:00,60.8,57.5,29.59,East,80,0.0,0.0,89,0.00,OVC,,0.43,WeatherDisplay:10.37,2013-06-11 21:49:00,
2013-06-11 17:54:00,60.7,57.7,29.59,ESE,119,0.3,2.0,90,0.00,OVC,,0.43,WeatherDisplay:10.37,2013-06-11 21:54:00,
2013-06-11 17:59:00,60.5,57.6,29.59,ESE,119,0.0,0.0,90,0.00,OVC,,0.43,WeatherDisplay:10.37,2013-06-11 21:59:00,
2013-06-11 18:04:00,60.4,57.1,29.59,ESE,117,0.2,1.2,89,0.00,OVC,,0.43,WeatherDisplay:10.37,2013-06-11 22:04:00,
2013-06-11 18:09:00,60.4,57.1,29.59,SE,141,0.1,1.2,89,0.00,OVC,,0.43,WeatherDisplay:10.37,2013-06-11 22:09:00,
2013-06-11 18:14:00,60.4,57.5,29.59,East,88,0.0,1.2,90,0.00,OVC,,0.43,WeatherDisplay:10.37,2013-06-11 22:14:00,
2013-06-11 18:19:00,60.3,58.0,29.59,East,88,0.0,0.0,92,0.00,OVC,,0.43,WeatherDisplay:10.37,2013-06-11 22:19:00,
2013-06-11 18:24:00,60.3,58.0,29.59,East,88,0.0,0.0,92,0.00,OVC,,0.43,WeatherDisplay:10.37,2013-06-11 22:24:00,
2013-06-11 18:29:00,60.0,57.7,29.59,East,83,0.2,2.3,92,0.01,RA,,0.44,WeatherDisplay:10.37,2013-06-11 22:29:00,
2013-06-11 18:34:00,59.6,57.0,29.59,East,86,0.5,2.3,91,0.02,RA,,0.46,WeatherDisplay:10.37,2013-06-11 22:34:00,
2013-06-11 18:39:00,59.4,57.1,29.59,East,86,0.0,0.0,92,0.04,RA,,0.47,WeatherDisplay:10.37,2013-06-11 22:39:00,
2013-06-11 18:44:00,59.2,57.2,29.59,East,86,0.0,0.0,93,0.04,RA,,0.47,WeatherDisplay:10.37,2013-06-11 22:44:00,
2013-06-11 18:49:00,59.0,57.0,29.59,East,85,0.0,0.0,93,0.05,RA,,0.48,WeatherDisplay:10.37,2013-06-11 22:49:00,
2013-06-11 18:54:00,58.9,57.2,29.58,East,85,0.0,0.0,94,0.07,RA,,0.50,WeatherDisplay:10.37,2013-06-11 22:54:00,
2013-06-11 18:59:00,58.8,57.4,29.58,East,85,0.0,0.0,95,0.08,RA,,0.52,WeatherDisplay:10.37,2013-06-11 22:59:00,
2013-06-11 19:04:00,58.7,57.3,29.58,East,85,0.0,0.0,95,0.11,RA,,0.54,WeatherDisplay:10.37,2013-06-11 23:04:00,
2013-06-11 19:09:00,58.4,57.0,29.58,East,85,0.0,0.0,95,0.14,RA,,0.58,WeatherDisplay:10.37,2013-06-11 23:09:00,
2013-06-11 19:14:00,58.2,56.8,29.59,WNW,296,2.1,2.3,95,0.17,RA,,0.60,WeatherDisplay:10.37,2013-06-11 23:14:00,
2013-06-11 19:19:00,58.0,56.6,29.60,WNW,290,0.8,1.2,95,0.19, +RA,,0.63,WeatherDisplay:10.37,2013-06-11 23:19:00,
2013-06-11 19:24:00,57.9,56.8,29.60,WNW,283,0.0,3.5,96,0.25, +RA,,0.69,WeatherDisplay:10.37,2013-06-11 23:24:00,
2013-06-11 19:29:00,57.8,56.7,29.58,SSE,161,1.7,2.3,96,0.31, +RA,,0.76,WeatherDisplay:10.37,2013-06-11 23:29:00,
2013-06-11 19:34:00,57.7,56.6,29.58,SE,145,0.1,3.5,96,0.38, +RA,,0.83,WeatherDisplay:10.37,2013-06-11 23:34:00,
2013-06-11 19:39:00,57.6,56.5,29.59,SE,144,0.0,1.2,96,0.39, +RA,,0.86,WeatherDisplay:10.37,2013-06-11 23:39:00,
2013-06-11 19:44:00,57.5,56.4,29.58,WSW,251,0.4,3.5,96,0.39, +RA,,0.86,WeatherDisplay:10.37,2013-06-11 23:44:00,
2013-06-11 19:49:00,57.4,56.3,29.58,South,180,0.0,0.0,96,0.39,RA,,0.87,WeatherDisplay:10.37,2013-06-11 23:49:00,
2013-06-11 19:54:00,57.4,56.3,29.59,South,178,0.0,1.2,96,0.38,RA,,0.87,WeatherDisplay:10.37,2013-06-11 23:54:00,
2013-06-11 19:59:00,57.4,56.3,29.58,South,178,0.1,0.0,96,0.36,OVC,,0.87,WeatherDisplay:10.37,2013-06-11 23:59:00,
2013-06-11 20:04:00,57.4,56.3,29.59,South,178,0.0,0.0,96,0.34, +RA,,0.88,WeatherDisplay:10.37,2013-06-12 00:04:00,
2013-06-11 20:09:00,57.3,56.2,29.59,South,178,0.1,1.2,96,0.30, +RA,,0.88,WeatherDisplay:10.37,2013-06-12 00:09:00,
2013-06-11 20:14:00,57.1,56.0,29.60,South,178,0.0,0.0,96,0.29, +RA,,0.88,WeatherDisplay:10.37,2013-06-12 00:14:00,
2013-06-11 20:19:00,57.1,56.0,29.60,SW,230,0.0,2.3,96,0.28, +RA,,0.88,WeatherDisplay:10.37,2013-06-12 00:19:00,
2013-06-11 20:24:00,57.1,56.0,29.59,SW,230,0.0,0.0,96,0.26, +RA,,0.93,WeatherDisplay:10.37,2013-06-12 00:24:00,
2013-06-11 20:29:00,57.0,55.9,29.59,SW,230,0.0,0.0,96,0.23, +RA,,0.95,WeatherDisplay:10.37,2013-06-12 00:29:00,
2013-06-11 20:34:00,57.0,56.2,29.59,SW,230,0.0,0.0,97,0.14,-RA,,0.95,WeatherDisplay:10.37,2013-06-12 00:34:00,
2013-06-11 20:39:00,56.9,56.1,29.60,WSW,243,0.8,2.3,97,0.12,-RA,,0.96,WeatherDisplay:10.37,2013-06-12 00:39:00,
2013-06-11 20:44:00,56.8,56.0,29.59,SSW,210,0.2,1.2,97,0.10,-RA,,0.96,WeatherDisplay:10.37,2013-06-12 00:44:00,
2013-06-11 20:49:00,56.8,56.0,29.59,SSW,194,0.2,0.0,97,0.09,OVC,,0.96,WeatherDisplay:10.37,2013-06-12 00:49:00,
2013-06-11 20:54:00,56.7,55.6,29.60,SSW,194,0.0,0.0,96,0.09,OVC,,0.96,WeatherDisplay:10.37,2013-06-12 00:54:00,
2013-06-11 20:59:00,56.7,55.9,29.60,SSW,194,0.0,0.0,97,0.09,OVC,,0.96,WeatherDisplay:10.37,2013-06-12 00:59:00,
2013-06-11 21:04:00,56.7,55.9,29.59,SSW,194,0.0,0.0,97,0.09,-RA,,0.96,WeatherDisplay:10.37,2013-06-12 01:04:00,
2013-06-11 21:09:00,56.6,55.8,29.59,SSW,194,0.0,0.0,97,0.08,-RA,,0.96,WeatherDisplay:10.37,2013-06-12 01:09:00,
2013-06-11 21:14:00,56.7,55.9,29.59,SSW,194,0.0,0.0,97,0.08,-RA,,0.96,WeatherDisplay:10.37,2013-06-12 01:14:00,
2013-06-11 21:19:00,56.8,56.0,29.60,SSW,194,0.0,0.0,97,0.08,-RA,,0.96,WeatherDisplay:10.37,2013-06-12 01:19:00,
2013-06-11 21:24:00,56.8,56.0,29.60,SSW,194,0.0,0.0,97,0.04,-RA,,0.96,WeatherDisplay:10.37,2013-06-12 01:24:00,
2013-06-11 21:29:00,56.8,56.0,29.60,SSW,194,0.0,0.0,97,0.02,-RA,,0.96,WeatherDisplay:10.37,2013-06-12 01:29:00,
2013-06-11 21:34:00,56.7,55.9,29.60,SSW,194,0.0,0.0,97,0.01,-RA,,0.96,WeatherDisplay:10.37,2013-06-12 01:34:00,
2013-06-11 21:39:00,56.7,55.9,29.60,SSW,194,0.0,0.0,97,0.00,-RA,,0.96,WeatherDisplay:10.37,2013-06-12 01:39:00,
2013-06-11 21:44:00,56.8,56.0,29.60,SSW,194,0.0,0.0,97,0.00,-RA,,0.96,WeatherDisplay:10.37,2013-06-12 01:44:00,
2013-06-11 21:49:00,56.8,56.0,29.60,SSW,194,0.0,0.0,97,0.00,-RA,,0.96,WeatherDisplay:10.37,2013-06-12 01:49:00,
2013-06-11 21:54:00,56.9,56.1,29.60,SSW,194,0.0,0.0,97,0.00,-RA,,0.96,WeatherDisplay:10.37,2013-06-12 01:54:00,
2013-06-11 21:59:00,56.9,56.1,29.60,SSW,194,0.0,0.0,97,0.00,-RA,,0.96,WeatherDisplay:10.37,2013-06-12 01:59:00,
2013-06-11 22:04:00,56.9,56.1,29.60,SSW,194,0.0,0.0,97,0.00,-RA,,0.96,WeatherDisplay:10.37,2013-06-12 02:04:00,
2013-06-11 22:09:00,56.9,56.1,29.60,SSW,194,0.0,0.0,97,0.00,-RA,,0.96,WeatherDisplay:10.37,2013-06-12 02:09:00,
2013-06-11 22:14:00,56.9,56.1,29.60,SSW,194,0.0,0.0,97,0.00,-RA,,0.96,WeatherDisplay:10.37,2013-06-12 02:14:00,
2013-06-11 22:19:00,56.8,56.0,29.60,SSW,194,0.0,0.0,97,0.00,OVC,,0.96,WeatherDisplay:10.37,2013-06-12 02:19:00,
2013-06-11 22:24:00,56.8,56.0,29.60,SSW,194,0.0,0.0,97,0.00,OVC,,0.96,WeatherDisplay:10.37,2013-06-12 02:24:00,
2013-06-11 22:29:00,56.7,55.9,29.60,SSW,194,0.0,0.0,97,0.00,OVC,,0.96,WeatherDisplay:10.37,2013-06-12 02:29:00,
2013-06-11 22:34:00,56.7,55.9,29.60,SSW,194,0.0,0.0,97,0.00,OVC,,0.96,WeatherDisplay:10.37,2013-06-12 02:34:00,
2013-06-11 22:39:00,56.8,56.0,29.60,SSW,194,0.0,0.0,97,0.00,OVC,,0.96,WeatherDisplay:10.37,2013-06-12 02:39:00,
2013-06-11 22:44:00,56.7,55.9,29.60,SSW,194,0.0,0.0,97,0.00,OVC,,0.96,WeatherDisplay:10.37,2013-06-12 02:44:00,
2013-06-11 22:49:00,56.7,55.9,29.59,SSW,194,0.0,0.0,97,0.00,OVC,,0.96,WeatherDisplay:10.37,2013-06-12 02:49:00,
2013-06-11 22:54:00,56.6,55.8,29.59,SSW,194,0.0,0.0,97,0.00,OVC,,0.96,WeatherDisplay:10.37,2013-06-12 02:54:00,
2013-06-11 22:59:00,56.6,55.8,29.59,SSW,194,0.0,0.0,97,0.00,OVC,,0.96,WeatherDisplay:10.37,2013-06-12 02:59:00,
2013-06-11 23:04:00,56.6,55.8,29.59,SSW,194,0.0,0.0,97,0.00,OVC,,0.96,WeatherDisplay:10.37,2013-06-12 03:04:00,
2013-06-11 23:09:00,56.6,55.8,29.59,SSW,194,0.0,0.0,97,0.00,OVC,,0.96,WeatherDisplay:10.37,2013-06-12 03:09:00,
2013-06-11 23:14:00,56.5,55.7,29.59,SSW,194,0.0,0.0,97,0.00,OVC,,0.96,WeatherDisplay:10.37,2013-06-12 03:14:00,
2013-06-11 23:19:00,56.4,55.6,29.59,SSW,194,0.0,0.0,97,0.00,OVC,,0.96,WeatherDisplay:10.37,2013-06-12 03:19:00,
2013-06-11 23:24:00,56.3,55.5,29.59,SSW,194,0.0,0.0,97,0.00,OVC,,0.96,WeatherDisplay:10.37,2013-06-12 03:24:00,
2013-06-11 23:29:00,56.3,55.5,29.59,SSW,194,0.0,0.0,97,0.00,OVC,,0.96,WeatherDisplay:10.37,2013-06-12 03:29:00,
2013-06-11 23:34:00,56.4,55.6,29.59,SSW,194,0.0,0.0,97,0.00,OVC,,0.96,WeatherDisplay:10.37,2013-06-12 03:34:00,
2013-06-11 23:39:00,56.3,55.5,29.59,SSW,194,0.0,0.0,97,0.01,RA,,0.97,WeatherDisplay:10.37,2013-06-12 03:39:00,
2013-06-11 23:44:00,56.2,55.4,29.58,SSW,194,0.0,0.0,97,0.01,RA,,0.97,WeatherDisplay:10.37,2013-06-12 03:44:00,
2013-06-11 23:49:00,56.2,55.4,29.58,SSW,194,0.0,0.0,97,0.01,-RA,,0.97,WeatherDisplay:10.37,2013-06-12 03:49:00,
2013-06-11 23:54:00,56.2,55.4,29.59,SSW,194,0.0,0.0,97,0.01,-RA,,0.97,WeatherDisplay:10.37,2013-06-12 03:54:00,
2013-06-11 23:59:00,56.2,55.4,29.59,SSW,194,0.0,0.0,97,0.01,-RA,,0.97,WeatherDisplay:10.37,2013-06-12 03:59:00,